Printer-friendly version
Follow the MPC on Twitter Follow the MPC on Facebook The MPC blog
Minor Planet Center

MPEC 2010-C79 : 2010 CU19

The following Minor Planet Electronic Circular may be linked-to from your own Web pages, but must not otherwise be redistributed electronically.

A form allowing access to any MPEC is at the bottom of this page.


Read MPEC 2010-C78 Read MPEC 2010-C80


M.P.E.C. 2010-C79                                Issued 2010 Feb. 15, 15:50 UT

     The Minor Planet Electronic Circulars contain information on unusual
         minor planets and routine data on comets.  They are published
   on behalf of Commission 20 of the International Astronomical Union by the
          Minor Planet Center, Smithsonian Astrophysical Observatory,
                          Cambridge, MA 02138, U.S.A.

             Prepared using the Tamkin Foundation Computer Network

                              MPC@CFA.HARVARD.EDU
          URL http://www.cfa.harvard.edu/iau/mpc.html  ISSN 1523-6714

                                   2010 CU19

Observations:
     K10C19U* S2010 02 11.23775 07 49 15.08 -74 25 49.3                 EC079C51
     K10C19U  s2010 02 11.23775 1 -  279.1722 + 1051.3596 - 6828.0819   EC079C51
     K10C19U  S2010 02 11.37005 07 49 12.35 -74 24 58.8                 EC079C51
     K10C19U  s2010 02 11.37005 1 -  290.5689 + 1040.7250 - 6829.2143   EC079C51
     K10C19U  S2010 02 11.50235 07 49 09.77 -74 24 07.6                 EC079C51
     K10C19U  s2010 02 11.50235 1 -  302.8485 + 1028.3115 - 6830.5759   EC079C51
     K10C19U  S2010 02 11.76709 07 49 04.67 -74 22 22.4                 EC079C51
     K10C19U  s2010 02 11.76709 1 -  272.6391 + 1067.0202 - 6825.9229   EC079C51
     K10C19U  S2010 02 11.83318 07 49 03.51 -74 21 56.5                 EC079C51
     K10C19U  s2010 02 11.83318 1 -  305.8482 + 1030.6178 - 6830.1738   EC079C51
     K10C19U  S2010 02 11.83330 07 49 03.65 -74 21 55.0                 EC079C51
     K10C19U  s2010 02 11.83330 1 -  250.6955 + 1092.7394 - 6822.7502   EC079C51
     K10C19U  S2010 02 11.96561 07 49 01.17 -74 21 01.9                 EC079C51
     K10C19U  s2010 02 11.96561 1 -  262.8051 + 1080.7296 - 6824.1212   EC079C51
     K10C19U  S2010 02 12.03170 07 49 00.01 -74 20 36.5                 EC079C51
     K10C19U  s2010 02 12.03170 1 -  296.9871 + 1042.9895 - 6828.7044   EC079C51
     K10C19U  S2010 02 12.09791 07 48 58.84 -74 20 07.9                 EC079C51
     K10C19U  s2010 02 12.09791 1 -  276.1151 + 1067.8332 - 6825.6854   EC079C51
     K10C19U  S2010 02 12.16413 07 48 57.87 -74 19 40.1                 EC079C51
     K10C19U  s2010 02 12.16413 1 -  254.9984 + 1093.1789 - 6822.3824   EC079C51
     K10C19U  S2010 02 12.23022 07 48 56.61 -74 19 13.4                 EC079C51
     K10C19U  s2010 02 12.23022 1 -  288.3752 + 1056.3523 - 6826.8115   EC079C51
     K10C19U  S2010 02 12.29643 07 48 55.64 -74 18 45.4                 EC079C51
     K10C19U  s2010 02 12.29643 1 -  266.8173 + 1082.1329 - 6823.5567   EC079C51
     K10C19U QC2010 02 15.46651 07 48 27.29 -73 53 30.4          20.5 R EC079E12
     K10C19U QC2010 02 15.52549 07 48 26.59 -73 52 58.7                 EC079E12
     K10C19U QC2010 02 15.58101 07 48 26.02 -73 52 27.6          20.2 V EC079E12

Observer details:
E12 Siding Spring Survey.  Observer R. H. McNaught.  0.5-m Uppsala Schmidt
    + CCD.
C51 WISE.  Measurers A. Mainzer, E. Wright, J. Bauer, T. Grav, J. Dailey, J.
    Masiero, R. Cutri, R. McMillan, R. Walker.
    (http://wise.ssl.berkeley.edu/mission_sci.html)

Orbital elements:
2010 CU19
Epoch 2010 Feb. 13.0 TT = JDT 2455240.5                 MPC
M 356.59625              (2000.0)            P               Q
n   0.21261180     Peri.  301.97880     -0.68180661     -0.59506935
a   2.7802113      Node   210.01980     +0.39833809     -0.78984056
e   0.4072419      Incl.   58.26050     -0.61356867     +0.14847342
P   4.64           H   17.4           G   0.15
From 15 observations 2010 Feb. 11-15.

Ephemeris:
2010 CU19                a,e,i = 2.78, 0.41, 58                  q = 1.6480
Date    TT    R. A. (2000) Decl.     Delta      r     Elong.  Phase     V
2010 02 13    07 48.75   -74 13.7    1.321    1.654    90.3    36.7    20.6
2010 02 23    07 50.50   -72 27.5    1.254    1.649    93.8    36.8    20.5
2010 03 05    08 00.06   -69 34.0    1.183    1.648    98.2    36.6    20.3
2010 03 15    08 16.04   -65 24.0    1.113    1.652   103.1    35.9    20.2
2010 03 25    08 36.38   -59 47.2    1.050    1.661   108.4    34.7    20.0
2010 04 04    08 59.05   -52 40.5    1.003    1.673   113.3    33.3    19.9
2010 04 14    09 22.47   -44 16.5    0.982    1.690   116.8    32.0    19.9
2010 04 24    09 45.74   -35 11.8    0.993    1.710   117.7    31.4    19.9
2010 05 04    10 08.32   -26 18.1    1.041    1.735   115.7    31.6    20.0
2010 05 14    10 30.00   -18 21.0    1.123    1.762   111.2    32.3    20.2
2010 05 24    10 50.78   -11 45.5    1.235    1.792   105.4    33.0    20.5
2010 06 03    11 10.70   -06 34.5    1.369    1.826    98.9    33.3    20.8
2010 06 13    11 29.88   -02 38.6    1.518    1.861    92.4    33.0    21.0
2010 06 23    11 48.46   +00 15.4    1.677    1.899    85.9    32.3    21.3
2010 07 03    12 06.52   +02 20.9    1.841    1.938    79.7    31.1    21.5
2010 07 13    12 24.19   +03 49.0    2.007    1.979    73.7    29.5    21.7
2010 07 23    12 41.57   +04 48.6    2.170    2.022    68.0    27.8    21.8
2010 08 02    12 58.73   +05 26.9    2.328    2.065    62.4    25.8    22.0

Timothy B. Spahr             (C) Copyright 2010 MPC           M.P.E.C. 2010-C79

Read MPEC 2010-C78 Read MPEC 2010-C80


MPEC number:

Enter an MPEC number in one of the following forms:

  • 1997-B01 (the full form)
  • J97B01 (the packed version of the full form)
  • B01 (the abbreviated form)

Valid HTML 4.01!